TimeEDT,TemperatureF,Dew PointF,Humidity,Sea Level PressureIn,VisibilityMPH,Wind Direction,Wind SpeedMPH,Gust SpeedMPH,PrecipitationIn,Events,Conditions,WindDirDegrees,DateUTC
12:58 AM,22.1,11.5,64,30.06,10.0,NE,13.8,-,N/A,,Scattered Clouds,40,2014-03-17 04:58:00
1:38 AM,21.2,10.4,63,30.00,10.0,NE,13.8,-,N/A,,Mostly Cloudy,40,2014-03-17 05:38:00
1:58 AM,21.4,11.1,65,30.04,10.0,NE,13.8,-,N/A,,Mostly Cloudy,40,2014-03-17 05:58:00
2:08 AM,21.2,10.4,63,30.00,10.0,NE,13.8,23.0,N/A,,Mostly Cloudy,40,2014-03-17 06:08:00
2:58 AM,20.5,10.9,67,30.01,10.0,NE,13.8,-,N/A,,Overcast,40,2014-03-17 06:58:00
3:48 AM,21.2,10.4,63,29.99,10.0,NNE,12.7,-,N/A,,Overcast,20,2014-03-17 07:48:00
3:58 AM,21.0,10.4,64,30.04,10.0,NNE,12.7,-,N/A,,Overcast,20,2014-03-17 07:58:00
4:38 AM,21.2,10.4,63,29.96,10.0,NE,15.0,-,N/A,,Overcast,40,2014-03-17 08:38:00
4:58 AM,20.7,9.9,63,29.99,10.0,NNE,15.0,-,N/A,,Overcast,30,2014-03-17 08:58:00
5:58 AM,20.7,9.5,62,30.00,10.0,NE,13.8,-,N/A,,Overcast,40,2014-03-17 09:58:00
6:58 AM,19.9,8.8,62,29.99,10.0,NE,11.5,-,N/A,,Overcast,40,2014-03-17 10:58:00
7:58 AM,19.9,9.0,62,29.99,10.0,NE,13.8,-,N/A,,Overcast,40,2014-03-17 11:58:00
8:58 AM,19.8,8.6,62,30.01,10.0,NNE,15.0,-,N/A,,Overcast,30,2014-03-17 12:58:00
9:58 AM,21.2,9.0,59,30.01,10.0,NE,8.1,-,N/A,,Overcast,50,2014-03-17 13:58:00
10:58 AM,23.4,9.9,56,30.01,10.0,NE,9.2,-,N/A,,Overcast,40,2014-03-17 14:58:00
11:58 AM,26.4,11.5,53,29.97,10.0,NE,5.8,-,N/A,,Overcast,50,2014-03-17 15:58:00
12:58 PM,29.8,14.0,52,29.95,10.0,East,5.8,-,N/A,,Overcast,80,2014-03-17 16:58:00
1:58 PM,32.2,15.8,51,29.93,10.0,Variable,3.5,-,N/A,,Overcast,0,2014-03-17 17:58:00
2:58 PM,35.6,17.8,48,29.91,10.0,Variable,3.5,-,N/A,,Overcast,0,2014-03-17 18:58:00
3:58 PM,37.8,19.4,48,29.90,10.0,NW,3.5,-,N/A,,Overcast,320,2014-03-17 19:58:00
4:58 PM,40.3,21.2,47,29.88,10.0,NNE,4.6,-,N/A,,Overcast,20,2014-03-17 20:58:00
5:28 PM,42.8,23.0,46,29.84,10.0,ENE,1.2,-,N/A,,Partly Cloudy,60,2014-03-17 21:28:00
5:58 PM,41.0,22.6,48,29.88,10.0,ESE,5.8,-,N/A,,Overcast,110,2014-03-17 21:58:00
6:58 PM,39.6,22.5,50,29.90,10.0,East,3.5,-,N/A,,Overcast,90,2014-03-17 22:58:00
7:58 PM,38.7,22.6,53,29.90,10.0,East,5.8,-,N/A,,Overcast,100,2014-03-17 23:58:00
8:58 PM,38.1,23.0,55,29.91,10.0,SE,3.5,-,N/A,,Overcast,130,2014-03-18 00:58:00
9:58 PM,37.9,23.2,55,29.93,10.0,East,4.6,-,N/A,,Overcast,100,2014-03-18 01:58:00
10:58 PM,37.4,24.4,60,29.93,10.0,East,4.6,-,N/A,,Overcast,100,2014-03-18 02:58:00
11:58 PM,34.3,23.4,64,29.95,10.0,Calm,Calm,-,N/A,,Clear,0,2014-03-18 03:58:00